• In Hungary
  • List of Countries
  • For 7 days
  • Water Temperature
  • Satellite Maps
  • Weather Map
  • News
  • Weather Widgets
  • user-avatar
    Login

    Hourly Weather Polevye Ozerki

    Today, 22 September, Saturday

    Time Temperature Precipitation Wind Pressure Humidity
    00:00 +18°C° 0 mm 1 mps 748 mmHg 78%
    01:00 +17°C° 0 mm 2 mps 748 mmHg 79%
    02:00 +17°C° 0 mm 2 mps 748 mmHg 79%
    03:00 +16°C° 0 mm 1 mps 748 mmHg 81%
    04:00 +16°C° 0 mm 2 mps 748 mmHg 81%
    05:00 +16°C° 0 mm 2 mps 748 mmHg 82%
    06:00 +15°C° 0 mm 2 mps 748 mmHg 82%
    07:00 +17°C° 0 mm 2 mps 747 mmHg 77%
    08:00 +18°C° 0 mm 3 mps 747 mmHg 73%
    09:00 +19°C° 0 mm 3 mps 747 mmHg 68%
    10:00 +21°C° 0 mm 3 mps 747 mmHg 64%
    11:00 +22°C° 0 mm 4 mps 747 mmHg 59%
    12:00 +25°C° 0 mm 4 mps 747 mmHg 54%
    13:00 +25°C° 0 mm 5 mps 746 mmHg 52%
    14:00 +26°C° 0 mm 5 mps 746 mmHg 51%
    15:00 +27°C° 0 mm 5 mps 746 mmHg 49%
    16:00 +25°C° 0 mm 5 mps 745 mmHg 54%
    17:00 +23°C° 0 mm 4 mps 745 mmHg 58%
    18:00 +22°C° 0 mm 4 mps 745 mmHg 63%
    19:00 +21°C° 0 mm 4 mps 744 mmHg 63%
    20:00 +21°C° 0 mm 4 mps 744 mmHg 62%
    21:00 +20°C° 0 mm 5 mps 744 mmHg 62%
    22:00 +20°C° 0 mm 5 mps 743 mmHg 61%
    23:00 +20°C° 0 mm 5 mps 743 mmHg 59%

    Tomorrow, 23 September, Sunday

    Time Temperature Precipitation Wind Pressure Humidity
    00:00 +19°C° 0 mm 6 mps 742 mmHg 58%
    01:00 +19°C° 0 mm 6 mps 742 mmHg 59%
    02:00 +19°C° 0 mm 6 mps 742 mmHg 59%
    03:00 +17°C° 0 mm 6 mps 741 mmHg 60%
    04:00 +17°C° 0 mm 6 mps 741 mmHg 61%
    05:00 +17°C° 0 mm 6 mps 740 mmHg 62%
    06:00 +16°C° 0 mm 6 mps 739 mmHg 63%
    07:00 +17°C° 0 mm 6 mps 739 mmHg 64%
    08:00 +17°C° 0 mm 6 mps 739 mmHg 64%
    09:00 +17°C° 0 mm 6 mps 739 mmHg 65%
    10:00 +16°C° 0.2 mm 7 mps 739 mmHg 68%
    11:00 +15°C° 0.2 mm 7 mps 740 mmHg 72%
    12:00 +12°C° 0.2 mm 7 mps 740 mmHg 75%
    13:00 +11°C° 0.6 mm 6 mps 740 mmHg 77%
    14:00 +10°C° 0.6 mm 5 mps 741 mmHg 80%
    15:00 +9°C° 0.6 mm 5 mps 741 mmHg 83%
    16:00 +10°C° 0.5 mm 4 mps 741 mmHg 83%
    17:00 +11°C° 0.5 mm 4 mps 741 mmHg 83%
    18:00 +11°C° 0.5 mm 3 mps 742 mmHg 83%
    19:00 +11°C° 0 mm 3 mps 742 mmHg 85%
    20:00 +10°C° 0 mm 3 mps 742 mmHg 87%
    21:00 +10°C° 0 mm 3 mps 742 mmHg 88%
    22:00 +10°C° 0 mm 3 mps 742 mmHg 89%
    23:00 +8°C° 0 mm 4 mps 742 mmHg 90%

    Day after tomorrow, 24 September, Monday

    Time Temperature Precipitation Wind Pressure Humidity
    00:00 +8°C° 0 mm 4 mps 742 mmHg 91%
    01:00 +9°C° 0 mm 3 mps 742 mmHg 92%
    02:00 +8°C° 0 mm 3 mps 742 mmHg 93%
    03:00 +8°C° 0 mm 3 mps 742 mmHg 93%
    04:00 +8°C° 0 mm 3 mps 742 mmHg 94%
    05:00 +8°C° 0 mm 3 mps 742 mmHg 94%
    06:00 +7°C° 0 mm 3 mps 742 mmHg 94%
    07:00 +9°C° 0 mm 3 mps 742 mmHg 89%
    08:00 +10°C° 0 mm 3 mps 742 mmHg 84%
    09:00 +11°C° 0 mm 3 mps 742 mmHg 79%
    10:00 +12°C° 0 mm 4 mps 742 mmHg 74%
    11:00 +13°C° 0 mm 5 mps 741 mmHg 69%
    12:00 +14°C° 0 mm 5 mps 741 mmHg 63%
    13:00 +13°C° 0.2 mm 5 mps 740 mmHg 66%
    14:00 +13°C° 0.2 mm 6 mps 740 mmHg 68%
    15:00 +13°C° 0.2 mm 6 mps 739 mmHg 71%
    16:00 +11°C° 1.6 mm 7 mps 738 mmHg 75%
    17:00 +10°C° 1.6 mm 8 mps 737 mmHg 79%
    18:00 +10°C° 1.6 mm 9 mps 736 mmHg 83%
    19:00 +10°C° 2.1 mm 9 mps 735 mmHg 84%
    20:00 +9°C° 2.1 mm 10 mps 733 mmHg 85%
    21:00 +11°C° 2.1 mm 11 mps 732 mmHg 86%
    22:00 +9°C° 0.3 mm 11 mps 731 mmHg 84%
    23:00 +9°C° 0.3 mm 11 mps 730 mmHg 81%

    25 September, Tuesday

    Time Temperature Precipitation Wind Pressure Humidity
    00:00 +9°C° 0.3 mm 11 mps 729 mmHg 78%
    01:00 +8°C° 0 mm 11 mps 729 mmHg 78%
    02:00 +8°C° 0 mm 11 mps 729 mmHg 78%
    03:00 +7°C° 0 mm 11 mps 729 mmHg 78%
    04:00 +7°C° 0 mm 11 mps 729 mmHg 78%
    05:00 +7°C° 0 mm 11 mps 730 mmHg 77%
    06:00 +7°C° 0 mm 10 mps 730 mmHg 77%
    07:00 +7°C° 0 mm 10 mps 730 mmHg 77%
    08:00 +7°C° 0 mm 10 mps 731 mmHg 76%
    09:00 +7°C° 0 mm 10 mps 731 mmHg 76%
    10:00 +7°C° 0.1 mm 10 mps 732 mmHg 76%
    11:00 +7°C° 0.1 mm 11 mps 733 mmHg 75%
    12:00 +7°C° 0.1 mm 11 mps 733 mmHg 75%
    13:00 +6°C° 0.2 mm 11 mps 734 mmHg 75%
    14:00 +6°C° 0.2 mm 10 mps 735 mmHg 76%
    15:00 +6°C° 0.2 mm 10 mps 736 mmHg 77%
    16:00 +6°C° 0.3 mm 10 mps 737 mmHg 77%
    17:00 +5°C° 0.3 mm 10 mps 737 mmHg 78%
    18:00 +5°C° 0.3 mm 9 mps 738 mmHg 79%
    19:00 +5°C° 0.4 mm 9 mps 739 mmHg 80%
    20:00 +5°C° 0.4 mm 8 mps 740 mmHg 80%
    21:00 +5°C° 0.4 mm 8 mps 740 mmHg 81%
    22:00 +5°C° 0.2 mm 7 mps 741 mmHg 81%
    23:00 +4°C° 0.2 mm 7 mps 741 mmHg 81%

    26 September, Wednesday

    Time Temperature Precipitation Wind Pressure Humidity
    00:00 +4°C° 0.2 mm 7 mps 742 mmHg 81%
    01:00 +4°C° 0 mm 6 mps 742 mmHg 82%
    02:00 +4°C° 0 mm 6 mps 743 mmHg 82%
    03:00 +3°C° 0 mm 6 mps 743 mmHg 83%
    04:00 +3°C° 0 mm 6 mps 744 mmHg 84%
    05:00 +2°C° 0 mm 6 mps 744 mmHg 85%
    06:00 +2°C° 0 mm 5 mps 745 mmHg 86%
    07:00 +2°C° 0 mm 6 mps 745 mmHg 80%
    08:00 +3°C° 0 mm 6 mps 746 mmHg 75%
    09:00 +3°C° 0 mm 6 mps 746 mmHg 69%
    10:00 +4°C° 0 mm 7 mps 746 mmHg 65%
    11:00 +6°C° 0 mm 7 mps 746 mmHg 61%
    12:00 +8°C° 0 mm 7 mps 746 mmHg 57%
    13:00 +8°C° 0 mm 7 mps 746 mmHg 58%
    14:00 +9°C° 0 mm 7 mps 746 mmHg 58%
    15:00 +9°C° 0 mm 8 mps 745 mmHg 58%
    16:00 +7°C° 0.5 mm 8 mps 745 mmHg 65%
    17:00 +7°C° 0.5 mm 8 mps 744 mmHg 72%
    18:00 +6°C° 0.5 mm 9 mps 744 mmHg 79%
    19:00 +6°C° 0.1 mm 8 mps 744 mmHg 80%
    20:00 +6°C° 0.1 mm 8 mps 744 mmHg 81%
    21:00 +7°C° 0.1 mm 8 mps 744 mmHg 82%
    22:00 +7°C° 0.1 mm 8 mps 743 mmHg 83%
    23:00 +7°C° 0.1 mm 8 mps 743 mmHg 84%

    27 September, Thursday

    Time Temperature Precipitation Wind Pressure Humidity
    00:00 +8°C° 0.1 mm 7 mps 743 mmHg 85%
    01:00 +7°C° 0.3 mm 8 mps 742 mmHg 85%
    02:00 +6°C° 0.3 mm 8 mps 742 mmHg 86%
    03:00 +6°C° 0.3 mm 8 mps 741 mmHg 86%
    04:00 +6°C° 0.6 mm 8 mps 741 mmHg 86%
    05:00 +6°C° 0.6 mm 9 mps 740 mmHg 85%
    06:00 +6°C° 0.6 mm 10 mps 740 mmHg 85%
    07:00 +6°C° 0.3 mm 10 mps 739 mmHg 84%
    08:00 +5°C° 0.3 mm 10 mps 739 mmHg 83%
    09:00 +5°C° 0.3 mm 10 mps 739 mmHg 83%
    10:00 +6°C° 0.2 mm 10 mps 739 mmHg 82%
    11:00 +7°C° 0.2 mm 10 mps 739 mmHg 82%
    12:00 +8°C° 0.2 mm 10 mps 738 mmHg 81%
    13:00 +8°C° 0.1 mm 9 mps 738 mmHg 81%
    14:00 +8°C° 0.1 mm 9 mps 738 mmHg 82%
    15:00 +8°C° 0.1 mm 9 mps 738 mmHg 82%
    16:00 +10°C° 0 mm 8 mps 738 mmHg 83%
    17:00 +10°C° 0 mm 8 mps 738 mmHg 83%
    18:00 +10°C° 0 mm 7 mps 737 mmHg 84%
    19:00 +10°C° 0.1 mm 8 mps 737 mmHg 84%
    20:00 +10°C° 0.1 mm 8 mps 737 mmHg 84%
    21:00 +10°C° 0.1 mm 9 mps 737 mmHg 84%
    22:00 +10°C° 0 mm 9 mps 737 mmHg 84%
    23:00 +10°C° 0 mm 8 mps 737 mmHg 85%
    Show more